contact:dominique.lefevre@mio.osupytheas.fr, maurice.libes@osupytheas.fr, didier.mallarino@osupytheas.fr
Project:EMSO http://www.emso-fr.org/EMSO-France
Depth: 2436.0 m
Title:EMSO Ligure Ouest : Data MII capteur CSTAR
DateTime,Latitude,Longitude,Instrument_Serial,Reference_Counts,Signal_Counts,Corrected_Signal_raw_counts,Calculated_Beam_c_inverse_meters,Internal_thermistor_counts
DateTime,Latitude,Longitude,Instrument_Serial,Reference_Counts,Signal_Counts,Corrected_Signal_raw_counts,Calculated_Beam_c_inverse_meters,Internal_thermistor_counts
2019-09-08T00:02:52,42.805,6.029,CST-1368DR,8053,11277,15401,0.055,551
2019-09-08T00:05:53,42.805,6.029,CST-1368DR,8052,11276,15401,0.055,551
2019-09-08T00:08:55,42.805,6.029,CST-1368DR,8053,11277,15401,0.055,550
2019-09-08T00:11:57,42.805,6.029,CST-1368DR,8052,11277,15402,0.055,551
2019-09-08T00:14:58,42.805,6.029,CST-1368DR,8052,11277,15403,0.055,551
2019-09-08T00:18:00,42.805,6.029,CST-1368DR,8052,11275,15399,0.056,551
2019-09-08T00:21:02,42.805,6.029,CST-1368DR,8052,11277,15402,0.055,551
2019-09-08T00:24:03,42.805,6.029,CST-1368DR,8052,11276,15401,0.055,551
2019-09-08T00:27:05,42.805,6.029,CST-1368DR,8052,11277,15402,0.055,551
2019-09-08T00:30:07,42.805,6.029,CST-1368DR,8052,11277,15403,0.055,551
2019-09-08T00:33:08,42.805,6.029,CST-1368DR,8052,11276,15401,0.055,551
2019-09-08T00:36:10,42.805,6.029,CST-1368DR,8052,11276,15402,0.055,551
2019-09-08T00:39:11,42.805,6.029,CST-1368DR,8052,11276,15401,0.055,550
2019-09-08T00:42:13,42.805,6.029,CST-1368DR,8052,11276,15401,0.055,551
2019-09-08T00:45:15,42.805,6.029,CST-1368DR,8052,11275,15400,0.056,551
2019-09-08T00:48:16,42.805,6.029,CST-1368DR,8052,11277,15403,0.055,551
2019-09-08T00:51:18,42.805,6.029,CST-1368DR,8052,11276,15401,0.055,551
2019-09-08T00:54:20,42.805,6.029,CST-1368DR,8052,11276,15402,0.055,551
2019-09-08T00:57:21,42.805,6.029,CST-1368DR,8052,11277,15402,0.055,551
2019-09-08T01:00:23,42.805,6.029,CST-1368DR,8052,11277,15402,0.055,551
2019-09-08T01:03:25,42.805,6.029,CST-1368DR,8052,11277,15403,0.055,550
2019-09-08T01:06:26,42.805,6.029,CST-1368DR,8052,11277,15402,0.055,551
2019-09-08T01:09:28,42.805,6.029,CST-1368DR,8052,11277,15403,0.055,551
2019-09-08T01:12:30,42.805,6.029,CST-1368DR,8052,11277,15402,0.055,551
2019-09-08T01:15:32,42.805,6.029,CST-1368DR,8052,11276,15402,0.055,551
2019-09-08T01:18:33,42.805,6.029,CST-1368DR,8052,11276,15401,0.055,551
2019-09-08T01:21:35,42.805,6.029,CST-1368DR,8052,11277,15402,0.055,551
2019-09-08T01:24:36,42.805,6.029,CST-1368DR,8052,11276,15402,0.055,551
2019-09-08T01:27:38,42.805,6.029,CST-1368DR,8052,11276,15402,0.055,550
2019-09-08T01:30:40,42.805,6.029,CST-1368DR,8052,11276,15401,0.055,551
2019-09-08T01:33:41,42.805,6.029,CST-1368DR,8052,11276,15401,0.055,550
2019-09-08T01:36:43,42.805,6.029,CST-1368DR,8052,11276,15401,0.055,551
2019-09-08T01:39:45,42.805,6.029,CST-1368DR,8052,11276,15401,0.055,551
2019-09-08T01:42:46,42.805,6.029,CST-1368DR,8052,11277,15402,0.055,550
2019-09-08T01:45:48,42.805,6.029,CST-1368DR,8052,11275,15400,0.056,551
2019-09-08T01:48:50,42.805,6.029,CST-1368DR,8052,11276,15402,0.055,551
2019-09-08T01:51:52,42.805,6.029,CST-1368DR,8052,11275,15400,0.056,551
2019-09-08T01:54:53,42.805,6.029,CST-1368DR,8052,11276,15401,0.055,551
2019-09-08T01:57:55,42.805,6.029,CST-1368DR,8052,11276,15402,0.055,551
2019-09-08T02:00:57,42.805,6.029,CST-1368DR,8052,11276,15401,0.055,551
2019-09-08T02:03:58,42.805,6.029,CST-1368DR,8052,11276,15401,0.055,551
2019-09-08T02:07:00,42.805,6.029,CST-1368DR,8052,11276,15401,0.055,551
2019-09-08T02:10:02,42.805,6.029,CST-1368DR,8052,11276,15401,0.055,551
2019-09-08T02:13:03,42.805,6.029,CST-1368DR,8052,11276,15402,0.055,551
2019-09-08T02:16:05,42.805,6.029,CST-1368DR,8052,11276,15401,0.055,551
2019-09-08T02:19:07,42.805,6.029,CST-1368DR,8052,11276,15401,0.055,551
2019-09-08T02:22:08,42.805,6.029,CST-1368DR,8051,11275,15402,0.055,551
2019-09-08T02:25:10,42.805,6.029,CST-1368DR,8051,11276,15403,0.055,551
2019-09-08T02:28:12,42.805,6.029,CST-1368DR,8051,11275,15401,0.055,551
2019-09-08T02:31:13,42.805,6.029,CST-1368DR,8052,11276,15401,0.055,551
2019-09-08T02:34:15,42.805,6.029,CST-1368DR,8051,11276,15402,0.055,551
2019-09-08T02:37:16,42.805,6.029,CST-1368DR,8051,11275,15402,0.055,551
2019-09-08T02:40:18,42.805,6.029,CST-1368DR,8052,11276,15401,0.055,551
2019-09-08T02:43:20,42.805,6.029,CST-1368DR,8052,11275,15400,0.056,551
2019-09-08T02:46:21,42.805,6.029,CST-1368DR,8051,11276,15402,0.055,550
2019-09-08T02:49:23,42.805,6.029,CST-1368DR,8051,11276,15402,0.055,551
2019-09-08T02:52:25,42.805,6.029,CST-1368DR,8051,11275,15401,0.055,550
2019-09-08T02:55:27,42.805,6.029,CST-1368DR,8051,11275,15402,0.055,551
2019-09-08T02:58:28,42.805,6.029,CST-1368DR,8051,11275,15401,0.055,550
2019-09-08T03:01:30,42.805,6.029,CST-1368DR,8051,11275,15402,0.055,551
2019-09-08T03:04:31,42.805,6.029,CST-1368DR,8051,11275,15402,0.055,551
2019-09-08T03:07:33,42.805,6.029,CST-1368DR,8051,11276,15403,0.055,551
2019-09-08T03:10:35,42.805,6.029,CST-1368DR,8051,11275,15401,0.055,551
2019-09-08T03:13:36,42.805,6.029,CST-1368DR,8051,11276,15403,0.055,551
2019-09-08T03:16:38,42.805,6.029,CST-1368DR,8051,11275,15401,0.055,550
2019-09-08T03:19:40,42.805,6.029,CST-1368DR,8051,11275,15401,0.055,551
2019-09-08T03:22:41,42.805,6.029,CST-1368DR,8051,11276,15402,0.055,551
2019-09-08T03:25:43,42.805,6.029,CST-1368DR,8051,11275,15402,0.055,550
2019-09-08T03:28:45,42.805,6.029,CST-1368DR,8051,11276,15403,0.055,551
2019-09-08T03:31:47,42.805,6.029,CST-1368DR,8051,11275,15401,0.055,551
2019-09-08T03:34:48,42.805,6.029,CST-1368DR,8051,11276,15402,0.055,551
2019-09-08T03:37:50,42.805,6.029,CST-1368DR,8051,11275,15401,0.055,551
2019-09-08T03:40:51,42.805,6.029,CST-1368DR,8051,11275,15402,0.055,551
2019-09-08T03:43:53,42.805,6.029,CST-1368DR,8051,11276,15403,0.055,551
2019-09-08T03:46:55,42.805,6.029,CST-1368DR,8051,11275,15402,0.055,551
2019-09-08T03:49:56,42.805,6.029,CST-1368DR,8051,11275,15401,0.055,551
2019-09-08T03:52:58,42.805,6.029,CST-1368DR,8051,11273,15399,0.056,551
2019-09-08T03:56:00,42.805,6.029,CST-1368DR,8051,11274,15401,0.055,551
2019-09-08T03:59:01,42.805,6.029,CST-1368DR,8051,11276,15403,0.055,551
2019-09-08T04:02:03,42.805,6.029,CST-1368DR,8051,11274,15400,0.056,551
2019-09-08T04:05:05,42.805,6.029,CST-1368DR,8051,11276,15402,0.055,551
2019-09-08T04:08:06,42.805,6.029,CST-1368DR,8051,11275,15402,0.055,551
2019-09-08T04:11:08,42.805,6.029,CST-1368DR,8051,11274,15401,0.055,551
2019-09-08T04:14:10,42.805,6.029,CST-1368DR,8051,11275,15401,0.055,551
2019-09-08T04:17:11,42.805,6.029,CST-1368DR,8051,11274,15400,0.056,551
2019-09-08T04:20:13,42.805,6.029,CST-1368DR,8051,11275,15402,0.055,551
2019-09-08T04:23:15,42.805,6.029,CST-1368DR,8051,11276,15402,0.055,551
2019-09-08T04:26:16,42.805,6.029,CST-1368DR,8051,11276,15403,0.055,551
2019-09-08T04:29:18,42.805,6.029,CST-1368DR,8051,11275,15401,0.055,551
2019-09-08T04:32:20,42.805,6.029,CST-1368DR,8051,11275,15401,0.055,551
2019-09-08T04:35:21,42.805,6.029,CST-1368DR,8051,11276,15402,0.055,550
2019-09-08T04:38:23,42.805,6.029,CST-1368DR,8051,11274,15400,0.056,551
2019-09-08T04:41:25,42.805,6.029,CST-1368DR,8051,11274,15401,0.055,551
2019-09-08T04:44:26,42.805,6.029,CST-1368DR,8051,11275,15401,0.055,551
2019-09-08T04:47:28,42.805,6.029,CST-1368DR,8051,11275,15401,0.055,551
2019-09-08T04:50:29,42.805,6.029,CST-1368DR,8051,11275,15401,0.055,551
2019-09-08T04:53:31,42.805,6.029,CST-1368DR,8051,11275,15402,0.055,551
2019-09-08T04:56:33,42.805,6.029,CST-1368DR,8051,11275,15402,0.055,551
2019-09-08T04:59:34,42.805,6.029,CST-1368DR,8051,11275,15401,0.055,551
2019-09-08T05:02:36,42.805,6.029,CST-1368DR,8051,11274,15401,0.055,551
2019-09-08T05:05:38,42.805,6.029,CST-1368DR,8051,11275,15401,0.055,551
2019-09-08T05:08:39,42.805,6.029,CST-1368DR,8051,11275,15401,0.055,551
2019-09-08T05:11:41,42.805,6.029,CST-1368DR,8051,11274,15400,0.056,551
2019-09-08T05:14:42,42.805,6.029,CST-1368DR,8051,11273,15399,0.056,551
2019-09-08T05:17:44,42.805,6.029,CST-1368DR,8051,11273,15399,0.056,551
2019-09-08T05:20:46,42.805,6.029,CST-1368DR,8051,11274,15400,0.056,551
2019-09-08T05:23:47,42.805,6.029,CST-1368DR,8050,11273,15401,0.055,551
2019-09-08T05:26:49,42.805,6.029,CST-1368DR,8050,11273,15401,0.055,550
2019-09-08T05:29:51,42.805,6.029,CST-1368DR,8050,11274,15401,0.055,551
2019-09-08T05:32:52,42.805,6.029,CST-1368DR,8051,11275,15401,0.055,551
2019-09-08T05:35:54,42.805,6.029,CST-1368DR,8050,11274,15402,0.055,551
2019-09-08T05:38:56,42.805,6.029,CST-1368DR,8051,11274,15401,0.055,551
2019-09-08T05:41:57,42.805,6.029,CST-1368DR,8051,11274,15400,0.056,551
2019-09-08T05:44:59,42.805,6.029,CST-1368DR,8050,11274,15401,0.055,551
2019-09-08T05:48:00,42.805,6.029,CST-1368DR,8050,11273,15401,0.055,551
2019-09-08T05:51:02,42.805,6.029,CST-1368DR,8050,11274,15402,0.055,551
2019-09-08T05:54:04,42.805,6.029,CST-1368DR,8050,11273,15400,0.056,551
2019-09-08T05:57:05,42.805,6.029,CST-1368DR,8050,11274,15402,0.055,551
2019-09-08T06:00:07,42.805,6.029,CST-1368DR,8050,11273,15401,0.055,551
2019-09-08T06:03:09,42.805,6.029,CST-1368DR,8050,11273,15400,0.056,551
2019-09-08T06:06:10,42.805,6.029,CST-1368DR,8050,11274,15402,0.055,551
2019-09-08T06:09:12,42.805,6.029,CST-1368DR,8050,11274,15401,0.055,550
2019-09-08T06:12:13,42.805,6.029,CST-1368DR,8050,11273,15401,0.055,551
2019-09-08T06:15:15,42.805,6.029,CST-1368DR,8050,11273,15401,0.055,550
2019-09-08T06:18:17,42.805,6.029,CST-1368DR,8050,11273,15401,0.055,551
2019-09-08T06:21:18,42.805,6.029,CST-1368DR,8050,11273,15401,0.055,551
2019-09-08T06:24:20,42.805,6.029,CST-1368DR,8050,11273,15401,0.055,551
2019-09-08T06:27:22,42.805,6.029,CST-1368DR,8050,11274,15402,0.055,551
2019-09-08T06:30:23,42.805,6.029,CST-1368DR,8050,11274,15402,0.055,551
2019-09-08T06:33:25,42.805,6.029,CST-1368DR,8050,11274,15401,0.055,551
2019-09-08T06:36:27,42.805,6.029,CST-1368DR,8050,11273,15401,0.055,551
2019-09-08T06:39:28,42.805,6.029,CST-1368DR,8050,11273,15400,0.056,551
2019-09-08T06:42:30,42.805,6.029,CST-1368DR,8050,11273,15400,0.056,551
2019-09-08T06:45:31,42.805,6.029,CST-1368DR,8050,11274,15401,0.055,551
2019-09-08T06:48:33,42.805,6.029,CST-1368DR,8050,11273,15400,0.056,551
2019-09-08T06:51:35,42.805,6.029,CST-1368DR,8050,11273,15400,0.056,551
2019-09-08T06:54:36,42.805,6.029,CST-1368DR,8050,11268,15394,0.057,551
2019-09-08T06:57:38,42.805,6.029,CST-1368DR,8050,11273,15401,0.055,551
2019-09-08T07:00:40,42.805,6.029,CST-1368DR,8050,11273,15401,0.055,551
2019-09-08T07:03:41,42.805,6.029,CST-1368DR,8050,11273,15400,0.056,551
2019-09-08T07:06:43,42.805,6.029,CST-1368DR,8050,11272,15400,0.056,551
2019-09-08T07:09:44,42.805,6.029,CST-1368DR,8050,11271,15398,0.056,551
2019-09-08T07:12:46,42.805,6.029,CST-1368DR,8050,11273,15400,0.056,551
2019-09-08T07:15:48,42.805,6.029,CST-1368DR,8050,11272,15399,0.056,551
2019-09-08T07:18:49,42.805,6.029,CST-1368DR,8050,11273,15400,0.056,551
2019-09-08T07:21:51,42.805,6.029,CST-1368DR,8050,11272,15400,0.056,551
2019-09-08T07:24:53,42.805,6.029,CST-1368DR,8050,11273,15400,0.056,551
2019-09-08T07:27:54,42.805,6.029,CST-1368DR,8050,11273,15400,0.056,551
2019-09-08T07:30:56,42.805,6.029,CST-1368DR,8050,11273,15400,0.056,551
2019-09-08T07:33:58,42.805,6.029,CST-1368DR,8050,11272,15399,0.056,551
2019-09-08T07:36:59,42.805,6.029,CST-1368DR,8050,11272,15399,0.056,551
2019-09-08T07:40:01,42.805,6.029,CST-1368DR,8050,11271,15398,0.056,551
2019-09-08T07:43:02,42.805,6.029,CST-1368DR,8050,11272,15399,0.056,551
2019-09-08T07:46:04,42.805,6.029,CST-1368DR,8050,11272,15400,0.056,551
2019-09-08T07:49:06,42.805,6.029,CST-1368DR,8050,11272,15399,0.056,551
2019-09-08T07:52:07,42.805,6.029,CST-1368DR,8050,11272,15400,0.056,551
2019-09-08T07:55:09,42.805,6.029,CST-1368DR,8050,11273,15400,0.056,551
2019-09-08T07:58:11,42.805,6.029,CST-1368DR,8050,11272,15400,0.056,550
2019-09-08T08:01:13,42.805,6.029,CST-1368DR,8049,11272,15401,0.055,551
2019-09-08T08:04:14,42.805,6.029,CST-1368DR,8049,11272,15401,0.055,551
2019-09-08T08:07:16,42.805,6.029,CST-1368DR,8049,11272,15401,0.055,550
2019-09-08T08:10:18,42.805,6.029,CST-1368DR,8049,11272,15401,0.055,551
2019-09-08T08:13:19,42.805,6.029,CST-1368DR,8049,11272,15401,0.055,551
2019-09-08T08:16:21,42.805,6.029,CST-1368DR,8049,11273,15403,0.055,551
2019-09-08T08:19:23,42.805,6.029,CST-1368DR,8049,11272,15401,0.055,551
2019-09-08T08:22:24,42.805,6.029,CST-1368DR,8049,11272,15400,0.056,551
2019-09-08T08:25:26,42.805,6.029,CST-1368DR,8049,11269,15397,0.056,551
2019-09-08T08:28:28,42.805,6.029,CST-1368DR,8049,11271,15400,0.056,551
2019-09-08T08:31:29,42.805,6.029,CST-1368DR,8049,11272,15401,0.055,551
2019-09-08T08:34:31,42.805,6.029,CST-1368DR,8049,11272,15401,0.055,551
2019-09-08T08:37:33,42.805,6.029,CST-1368DR,8049,11271,15399,0.056,551
2019-09-08T08:40:34,42.805,6.029,CST-1368DR,8049,11271,15400,0.056,551
2019-09-08T08:43:36,42.805,6.029,CST-1368DR,8049,11273,15402,0.055,551
2019-09-08T08:46:37,42.805,6.029,CST-1368DR,8049,11272,15400,0.056,551
2019-09-08T08:49:39,42.805,6.029,CST-1368DR,8049,11272,15401,0.055,551
2019-09-08T08:52:41,42.805,6.029,CST-1368DR,8049,11272,15400,0.056,551
2019-09-08T08:55:42,42.805,6.029,CST-1368DR,8049,11272,15401,0.055,551
2019-09-08T08:58:44,42.805,6.029,CST-1368DR,8049,11261,15386,0.059,551
2019-09-08T09:01:46,42.805,6.029,CST-1368DR,8049,11272,15401,0.055,551
2019-09-08T09:04:47,42.805,6.029,CST-1368DR,8049,11271,15400,0.056,551
2019-09-08T09:07:49,42.805,6.029,CST-1368DR,8049,11272,15401,0.055,550
2019-09-08T09:10:50,42.805,6.029,CST-1368DR,8049,11273,15402,0.055,551
2019-09-08T09:13:52,42.805,6.029,CST-1368DR,8049,11272,15401,0.055,551
2019-09-08T09:16:54,42.805,6.029,CST-1368DR,8049,11272,15401,0.055,551
2019-09-08T09:19:55,42.805,6.029,CST-1368DR,8049,11272,15400,0.056,551
2019-09-08T09:22:57,42.805,6.029,CST-1368DR,8049,11272,15401,0.055,551
2019-09-08T09:25:59,42.805,6.029,CST-1368DR,8049,11272,15401,0.055,551
2019-09-08T09:29:00,42.805,6.029,CST-1368DR,8049,11272,15401,0.055,551
2019-09-08T09:32:02,42.805,6.029,CST-1368DR,8049,11272,15401,0.055,551
2019-09-08T09:35:04,42.805,6.029,CST-1368DR,8049,11272,15401,0.055,551
2019-09-08T09:38:05,42.805,6.029,CST-1368DR,8049,11272,15401,0.055,551
2019-09-08T09:41:07,42.805,6.029,CST-1368DR,8049,11272,15400,0.056,551
2019-09-08T09:44:08,42.805,6.029,CST-1368DR,8049,11272,15401,0.055,551
2019-09-08T09:47:10,42.805,6.029,CST-1368DR,8049,11272,15401,0.055,551
2019-09-08T09:50:12,42.805,6.029,CST-1368DR,8049,11272,15400,0.056,551
2019-09-08T09:53:13,42.805,6.029,CST-1368DR,8049,11270,15398,0.056,551
2019-09-08T09:56:15,42.805,6.029,CST-1368DR,8049,11272,15400,0.056,551
2019-09-08T09:59:17,42.805,6.029,CST-1368DR,8049,11271,15400,0.056,551
2019-09-08T10:02:18,42.805,6.029,CST-1368DR,8049,11271,15400,0.056,551
2019-09-08T10:05:20,42.805,6.029,CST-1368DR,8049,11271,15400,0.056,551
2019-09-08T10:08:21,42.805,6.029,CST-1368DR,8049,11271,15400,0.056,551
2019-09-08T10:11:23,42.805,6.029,CST-1368DR,8049,11272,15400,0.056,551
2019-09-08T10:14:25,42.805,6.029,CST-1368DR,8049,11271,15399,0.056,551
2019-09-08T10:17:26,42.805,6.029,CST-1368DR,8049,11272,15400,0.056,551
2019-09-08T10:20:28,42.805,6.029,CST-1368DR,8049,11270,15399,0.056,550
2019-09-08T10:23:30,42.805,6.029,CST-1368DR,8049,11271,15400,0.056,550
2019-09-08T10:26:31,42.805,6.029,CST-1368DR,8049,11271,15400,0.056,551
2019-09-08T10:29:33,42.805,6.029,CST-1368DR,8049,11272,15400,0.056,551
2019-09-08T10:32:35,42.805,6.029,CST-1368DR,8049,11270,15399,0.056,551
2019-09-08T10:35:37,42.805,6.029,CST-1368DR,8049,11271,15399,0.056,551
2019-09-08T10:38:38,42.805,6.029,CST-1368DR,8049,11271,15399,0.056,551
2019-09-08T10:41:40,42.805,6.029,CST-1368DR,8049,11270,15398,0.056,551
2019-09-08T10:44:41,42.805,6.029,CST-1368DR,8048,11270,15401,0.055,551
2019-09-08T10:47:43,42.805,6.029,CST-1368DR,8048,11271,15401,0.055,550
2019-09-08T10:50:45,42.805,6.029,CST-1368DR,8048,11272,15402,0.055,551
2019-09-08T10:53:47,42.805,6.029,CST-1368DR,8049,11271,15400,0.056,550
2019-09-08T10:56:48,42.805,6.029,CST-1368DR,8048,11271,15401,0.055,551
2019-09-08T10:59:50,42.805,6.029,CST-1368DR,8048,11271,15402,0.055,551
2019-09-08T11:02:51,42.805,6.029,CST-1368DR,8048,11271,15402,0.055,551
2019-09-08T11:05:53,42.805,6.029,CST-1368DR,8048,11270,15401,0.055,551
2019-09-08T11:08:55,42.805,6.029,CST-1368DR,8048,11270,15401,0.055,551
2019-09-08T11:11:56,42.805,6.029,CST-1368DR,8048,11271,15402,0.055,551
2019-09-08T11:14:58,42.805,6.029,CST-1368DR,8048,11271,15401,0.055,551
2019-09-08T11:18:00,42.805,6.029,CST-1368DR,8048,11271,15402,0.055,551
2019-09-08T11:21:01,42.805,6.029,CST-1368DR,8048,11270,15400,0.056,551
2019-09-08T11:24:03,42.805,6.029,CST-1368DR,8048,11270,15401,0.055,551
2019-09-08T11:27:05,42.805,6.029,CST-1368DR,8048,11270,15400,0.056,551
2019-09-08T11:30:06,42.805,6.029,CST-1368DR,8048,11270,15400,0.056,551
2019-09-08T11:33:08,42.805,6.029,CST-1368DR,8048,11271,15401,0.055,551
2019-09-08T11:36:09,42.805,6.029,CST-1368DR,8048,11270,15400,0.056,551
2019-09-08T11:39:11,42.805,6.029,CST-1368DR,8048,11271,15401,0.055,551
2019-09-08T11:42:13,42.805,6.029,CST-1368DR,8048,11267,15396,0.057,551
2019-09-08T11:45:14,42.805,6.029,CST-1368DR,8048,11271,15402,0.055,551
2019-09-08T11:48:16,42.805,6.029,CST-1368DR,8048,11271,15401,0.055,551
2019-09-08T11:51:18,42.805,6.029,CST-1368DR,8048,11271,15401,0.055,551
2019-09-08T11:54:20,42.805,6.029,CST-1368DR,8048,11271,15402,0.055,551
2019-09-08T11:57:21,42.805,6.029,CST-1368DR,8048,11271,15402,0.055,551
2019-09-08T12:00:23,42.805,6.029,CST-1368DR,8048,11271,15402,0.055,551
2019-09-08T12:03:25,42.805,6.029,CST-1368DR,8048,11270,15400,0.056,551
2019-09-08T12:06:26,42.805,6.029,CST-1368DR,8048,11271,15401,0.055,551
2019-09-08T12:09:28,42.805,6.029,CST-1368DR,8048,11271,15401,0.055,551
2019-09-08T12:12:30,42.805,6.029,CST-1368DR,8048,11271,15401,0.055,551
2019-09-08T12:15:31,42.805,6.029,CST-1368DR,8048,11271,15402,0.055,551
2019-09-08T12:18:33,42.805,6.029,CST-1368DR,8048,11270,15400,0.056,551
2019-09-08T12:21:35,42.805,6.029,CST-1368DR,8048,11271,15401,0.055,551
2019-09-08T12:24:36,42.805,6.029,CST-1368DR,8048,11269,15398,0.056,550
2019-09-08T12:27:38,42.805,6.029,CST-1368DR,8048,11270,15400,0.056,551
2019-09-08T12:30:39,42.805,6.029,CST-1368DR,8048,11270,15400,0.056,551
2019-09-08T12:33:41,42.805,6.029,CST-1368DR,8048,11270,15400,0.056,551
2019-09-08T12:36:43,42.805,6.029,CST-1368DR,8048,11271,15401,0.055,551
2019-09-08T12:39:44,42.805,6.029,CST-1368DR,8048,11271,15401,0.055,551
2019-09-08T12:42:46,42.805,6.029,CST-1368DR,8048,11270,15401,0.055,551
2019-09-08T12:45:48,42.805,6.029,CST-1368DR,8048,11271,15401,0.055,551
2019-09-08T12:48:49,42.805,6.029,CST-1368DR,8048,11271,15402,0.055,551
2019-09-08T12:51:51,42.805,6.029,CST-1368DR,8048,11270,15400,0.056,551
2019-09-08T12:54:53,42.805,6.029,CST-1368DR,8048,11271,15401,0.055,551
2019-09-08T12:57:55,42.805,6.029,CST-1368DR,8048,11271,15401,0.055,551
2019-09-08T13:00:56,42.805,6.029,CST-1368DR,8048,11270,15400,0.056,551
2019-09-08T13:03:58,42.805,6.029,CST-1368DR,8048,11270,15401,0.055,551
2019-09-08T13:07:00,42.805,6.029,CST-1368DR,8048,11270,15399,0.056,551
2019-09-08T13:10:01,42.805,6.029,CST-1368DR,8048,11270,15400,0.056,551
2019-09-08T13:13:03,42.805,6.029,CST-1368DR,8048,11269,15399,0.056,551
2019-09-08T13:16:04,42.805,6.029,CST-1368DR,8048,11270,15401,0.055,551
2019-09-08T13:19:06,42.805,6.029,CST-1368DR,8048,11270,15400,0.056,551
2019-09-08T13:22:08,42.805,6.029,CST-1368DR,8048,11269,15399,0.056,551
2019-09-08T13:25:10,42.805,6.029,CST-1368DR,8048,11266,15394,0.057,551
2019-09-08T13:28:12,42.805,6.029,CST-1368DR,8048,11270,15399,0.056,551
2019-09-08T13:31:14,42.805,6.029,CST-1368DR,8048,11270,15399,0.056,551
2019-09-08T13:34:15,42.805,6.029,CST-1368DR,8048,11270,15400,0.056,551
2019-09-08T13:37:17,42.805,6.029,CST-1368DR,8048,11268,15397,0.056,551
2019-09-08T13:40:18,42.805,6.029,CST-1368DR,8048,11270,15400,0.056,551
2019-09-08T13:43:20,42.805,6.029,CST-1368DR,8048,11270,15401,0.055,551
2019-09-08T13:46:22,42.805,6.029,CST-1368DR,8047,11270,15402,0.055,551
2019-09-08T13:49:23,42.805,6.029,CST-1368DR,8048,11269,15399,0.056,551
2019-09-08T13:52:25,42.805,6.029,CST-1368DR,8047,11269,15401,0.055,551
2019-09-08T13:55:27,42.805,6.029,CST-1368DR,8047,11269,15400,0.056,551
2019-09-08T13:58:28,42.805,6.029,CST-1368DR,8047,11269,15401,0.055,551
2019-09-08T14:01:30,42.805,6.029,CST-1368DR,8047,11269,15400,0.056,551
2019-09-08T14:04:31,42.805,6.029,CST-1368DR,8047,11268,15399,0.056,551
2019-09-08T14:07:33,42.805,6.029,CST-1368DR,8047,11269,15400,0.056,551
2019-09-08T14:10:35,42.805,6.029,CST-1368DR,8047,11270,15402,0.055,551
2019-09-08T14:13:36,42.805,6.029,CST-1368DR,8047,11269,15401,0.055,551
2019-09-08T14:16:38,42.805,6.029,CST-1368DR,8047,11268,15400,0.056,551
2019-09-08T14:19:40,42.805,6.029,CST-1368DR,8047,11269,15401,0.055,551
2019-09-08T14:22:41,42.805,6.029,CST-1368DR,8047,11269,15401,0.055,551
2019-09-08T14:25:43,42.805,6.029,CST-1368DR,8047,11269,15401,0.055,551
2019-09-08T14:28:45,42.805,6.029,CST-1368DR,8047,11269,15401,0.055,551
2019-09-08T14:31:46,42.805,6.029,CST-1368DR,8047,11268,15399,0.056,551
2019-09-08T14:34:48,42.805,6.029,CST-1368DR,8047,11269,15400,0.056,551
2019-09-08T14:37:49,42.805,6.029,CST-1368DR,8047,11270,15401,0.055,551
2019-09-08T14:40:51,42.805,6.029,CST-1368DR,8047,11268,15399,0.056,551
2019-09-08T14:43:53,42.805,6.029,CST-1368DR,8047,11268,15399,0.056,551
2019-09-08T14:46:54,42.805,6.029,CST-1368DR,8047,11268,15399,0.056,551
2019-09-08T14:49:56,42.805,6.029,CST-1368DR,8047,11269,15401,0.055,551
2019-09-08T14:52:58,42.805,6.029,CST-1368DR,8047,11268,15400,0.056,551
2019-09-08T14:55:59,42.805,6.029,CST-1368DR,8047,11269,15400,0.056,551
2019-09-08T14:59:01,42.805,6.029,CST-1368DR,8047,11268,15399,0.056,551
2019-09-08T15:02:03,42.805,6.029,CST-1368DR,8047,11269,15401,0.055,551
2019-09-08T15:05:04,42.805,6.029,CST-1368DR,8047,11269,15400,0.056,550
2019-09-08T15:08:06,42.805,6.029,CST-1368DR,8047,11268,15400,0.056,551
2019-09-08T15:11:07,42.805,6.029,CST-1368DR,8047,11268,15399,0.056,551
2019-09-08T15:14:09,42.805,6.029,CST-1368DR,8047,11264,15393,0.058,551
2019-09-08T15:17:11,42.805,6.029,CST-1368DR,8047,11267,15398,0.056,551
2019-09-08T15:20:12,42.805,6.029,CST-1368DR,8047,11267,15398,0.056,551
2019-09-08T15:23:14,42.805,6.029,CST-1368DR,8047,11268,15399,0.056,551
2019-09-08T15:26:16,42.805,6.029,CST-1368DR,8047,11267,15398,0.056,551
2019-09-08T15:29:18,42.805,6.029,CST-1368DR,8047,11268,15399,0.056,551
2019-09-08T15:32:19,42.805,6.029,CST-1368DR,8047,11268,15399,0.056,551
2019-09-08T15:35:21,42.805,6.029,CST-1368DR,8047,11268,15399,0.056,551
2019-09-08T15:38:23,42.805,6.029,CST-1368DR,8047,11268,15399,0.056,551
2019-09-08T15:41:24,42.805,6.029,CST-1368DR,8047,11268,15399,0.056,551
2019-09-08T15:44:26,42.805,6.029,CST-1368DR,8047,11268,15399,0.056,551
2019-09-08T15:47:27,42.805,6.029,CST-1368DR,8047,11267,15398,0.056,551
2019-09-08T15:50:29,42.805,6.029,CST-1368DR,8047,11268,15399,0.056,551
2019-09-08T15:53:31,42.805,6.029,CST-1368DR,8047,11267,15398,0.056,551
2019-09-08T15:56:32,42.805,6.029,CST-1368DR,8047,11268,15399,0.056,551
2019-09-08T15:59:34,42.805,6.029,CST-1368DR,8047,11266,15396,0.057,550
2019-09-08T16:02:36,42.805,6.029,CST-1368DR,8047,11267,15398,0.056,551
2019-09-08T16:05:37,42.805,6.029,CST-1368DR,8047,11267,15398,0.056,551
2019-09-08T16:08:39,42.805,6.029,CST-1368DR,8047,11266,15397,0.056,551
2019-09-08T16:11:41,42.805,6.029,CST-1368DR,8047,11266,15397,0.056,551
2019-09-08T16:14:42,42.805,6.029,CST-1368DR,8047,11267,15398,0.056,551
2019-09-08T16:17:44,42.805,6.029,CST-1368DR,8047,11267,15398,0.056,551
2019-09-08T16:20:46,42.805,6.029,CST-1368DR,8047,11268,15399,0.056,551
2019-09-08T16:23:47,42.805,6.029,CST-1368DR,8047,11268,15399,0.056,551
2019-09-08T16:26:49,42.805,6.029,CST-1368DR,8047,11267,15398,0.056,551
2019-09-08T16:29:51,42.805,6.029,CST-1368DR,8047,11266,15397,0.056,551
2019-09-08T16:32:52,42.805,6.029,CST-1368DR,8046,11267,15400,0.056,551
2019-09-08T16:35:54,42.805,6.029,CST-1368DR,8047,11267,15397,0.056,551
2019-09-08T16:38:55,42.805,6.029,CST-1368DR,8047,11266,15396,0.057,551